sat.trackr.live / text

‹ back to catalog

STARLINK-31084

NORAD 58630 · 2023-203N

PAYLOAD ACTIVE UNKNOWN

§ Identity

Operator
Country
US
Launch date
2023-12-23
Launch site
AFETR
Launch vehicle
Mass (kg)
RCS (m²)

Purposes: comms

External: N2YO · Heavens-Above · Gunter

§ Orbital elements

Epoch: 2026-05-24T22:57:40.921632Z

Period
94.27 min
Inclination
43.0034°
Eccentricity
0.0001246
Mean motion
15.27601056 rev/d
Perigee alt
482.1 km
Apogee alt
483.8 km
Semi-major
6,861.1 km
B*
1.4776e-4
RAAN
359.9706°
Arg perigee
268.5315°
Mean anomaly
91.5394°
Rev number
13,518

§ Raw data

STARLINK-310841 58630U 23203N   26144.95672363  .00003809  00000+0  14776-3 0  99972 58630  43.0034 359.9706 0001246 268.5315  91.5394 15.27601056135182

JSON: /api/v1/satellites/58630 · /tle

For live sub-satellite position, see the globe view (requires WebGL).

§ Visibility from observer

Set your observer location to see the next 7 days of passes ≥ 10°. The values pass through the URL so the page stays shareable.

No JS? Fill the form by hand. The geolocation button needs JavaScript.